Date String (YYYY-MM-DD hh:mm:ss) UTC,Instrument flags,Ambient pressure (hPa),Sample flow (lpm),Bypass flow (lpm),Sample temperature (°C),Ambient temperature (°C),ASC tube jacket temperature (°C),LED temperature (°C),Box temperature (°C),Sample RH (%),Mass concentration (μg/m³),Mass concentration (μg/m³)
DateTimeUTC,F1_M11,P_M11,Q1_M11,Q2_M11,T1_M11,T2_M11,T3_M11,T4_M11,T5_M11,U1_M11,X2_M11,X0_M11
2021-08-16 17:00:00,,0829.2,5.00,0.00,29.1,26.7,00.0,38.2,30.8,25.0,0010.74,0017.84
2021-08-16 17:01:00,,0828.9,5.00,0.00,29.1,27.1,00.0,38.2,30.9,24.6,0010.78,0018.93
2021-08-16 17:02:00,,0829.0,5.00,0.00,29.2,27.5,00.0,38.2,31.0,24.2,0010.80,0019.02
2021-08-16 17:03:00,,0829.3,5.02,0.00,29.2,27.8,00.0,38.2,31.1,23.8,0010.78,0019.36
2021-08-16 17:04:00,,0829.2,4.99,0.00,29.3,28.0,00.0,38.2,31.2,24.9,0010.79,0018.34
2021-08-16 17:05:00,,0829.3,5.00,0.00,29.3,28.3,00.0,38.3,31.3,24.8,0010.81,0018.15
2021-08-16 17:06:00,,0829.3,4.99,0.00,29.4,27.9,00.0,38.3,31.1,24.0,0010.82,0018.35
2021-08-16 17:07:00,,0829.3,5.00,0.00,29.2,26.3,00.0,38.3,30.6,23.8,0010.81,0018.71
2021-08-16 17:08:00,,0829.2,5.01,0.00,29.1,26.0,00.0,38.3,30.5,25.2,0010.86,0018.76
2021-08-16 17:09:00,,0829.3,4.99,0.00,29.1,26.4,00.0,38.2,30.7,25.0,0010.88,0019.05
2021-08-16 17:10:00,,0829.4,5.00,0.00,29.1,26.8,00.0,38.2,30.8,24.5,0010.89,0018.67
2021-08-16 17:11:00,,0829.3,5.00,0.00,29.1,27.2,00.0,38.2,30.9,24.2,0010.88,0018.89
2021-08-16 17:12:00,,0829.3,5.00,0.00,29.1,27.6,00.0,38.2,30.9,24.0,0010.88,0018.63
2021-08-16 17:13:00,,0829.3,4.99,0.00,29.2,27.9,00.0,38.2,31.1,23.7,0010.89,0018.90
2021-08-16 17:14:00,,0829.3,5.00,0.00,29.3,28.1,00.0,38.2,31.2,23.8,0010.98,0019.13
2021-08-16 17:15:00,,0829.4,4.99,0.00,29.3,28.3,00.0,38.3,31.2,24.1,0011.08,0019.73
2021-08-16 17:16:00,,0829.0,5.01,0.00,29.3,27.3,00.0,38.3,31.0,24.4,0011.12,0019.56
2021-08-16 17:17:00,,0828.9,4.99,0.00,29.2,26.0,00.0,38.2,30.6,24.9,0011.19,0019.39
2021-08-16 17:18:00,,0828.7,5.01,0.00,29.1,26.1,00.0,38.2,30.6,25.6,0011.25,0019.24
2021-08-16 17:19:00,,0828.7,4.99,0.00,29.1,26.5,00.0,38.2,30.7,25.7,0011.26,0018.90
2021-08-16 17:20:00,,0828.7,5.01,0.00,29.1,27.0,00.0,38.2,30.8,25.4,0011.30,0018.95
2021-08-16 17:21:00,,0828.7,4.99,0.00,29.1,27.4,00.0,38.2,30.9,24.7,0011.34,0019.61
2021-08-16 17:22:00,,0828.7,5.01,0.00,29.2,27.7,00.0,38.2,31.0,24.5,0011.41,0020.15
2021-08-16 17:23:00,,0828.7,5.00,0.00,29.2,28.0,00.0,38.2,31.1,24.3,0011.49,0020.54
2021-08-16 17:24:00,,0828.7,5.00,0.00,29.3,27.8,00.0,38.2,31.0,23.9,0011.54,0020.56
2021-08-16 17:25:00,,0828.7,4.99,0.00,29.2,26.3,00.0,38.2,30.6,23.6,0011.49,0019.82
2021-08-16 17:26:00,,0829.0,5.01,0.00,29.0,25.8,00.0,38.2,30.5,23.4,0011.45,0019.35
2021-08-16 17:27:00,,0828.9,4.99,0.00,29.0,26.2,00.0,38.2,30.6,23.9,0011.47,0019.49
2021-08-16 17:28:00,,0829.1,5.00,0.00,29.0,26.6,00.0,38.1,30.7,23.8,0011.46,0019.95
2021-08-16 17:29:00,,0829.0,5.01,0.00,29.0,27.1,00.0,38.1,30.8,24.2,0011.47,0020.47
2021-08-16 17:30:00,,0829.2,5.01,0.00,29.0,27.4,00.0,38.1,30.9,23.9,0011.45,0020.23
2021-08-16 17:31:00,,0829.2,4.99,0.00,29.1,27.8,00.0,38.1,31.0,24.0,0011.47,0020.24
2021-08-16 17:32:00,,0829.0,5.00,0.00,29.2,28.0,00.0,38.1,31.0,24.0,0011.47,0020.17
2021-08-16 17:33:00,,0828.6,5.00,0.00,29.2,27.9,00.0,38.2,31.0,23.4,0011.42,0019.97
2021-08-16 17:34:00,,0828.6,5.00,0.00,29.1,26.5,00.0,38.1,30.6,23.8,0011.35,0019.36
2021-08-16 17:35:00,,0828.8,5.01,0.00,29.0,25.8,00.0,38.1,30.4,23.7,0011.38,0019.68
2021-08-16 17:36:00,,0829.0,5.00,0.00,29.0,26.2,00.0,38.1,30.5,23.7,0011.40,0020.76
2021-08-16 17:37:00,,0829.0,4.99,0.00,28.9,26.6,00.0,38.1,30.6,23.7,0011.39,0020.95
2021-08-16 17:38:00,,0828.6,5.01,0.00,29.0,27.0,00.0,38.1,30.7,23.5,0011.39,0021.14
2021-08-16 17:39:00,,0828.7,4.99,0.00,29.0,27.4,00.0,38.1,30.8,23.2,0011.39,0020.89
2021-08-16 17:40:00,,0828.7,5.01,0.00,29.1,27.7,00.0,38.1,30.9,23.3,0011.45,0020.46
2021-08-16 17:41:00,,0829.0,5.01,0.00,29.1,28.0,00.0,38.1,31.0,23.6,0011.48,0020.57
2021-08-16 17:42:00,,0828.9,4.99,0.00,29.2,27.9,00.0,38.1,31.0,23.5,0011.53,0020.73
2021-08-16 17:43:00,,0828.9,5.00,0.00,29.1,26.5,00.0,38.1,30.7,23.0,0011.56,0020.36
2021-08-16 17:44:00,,0828.9,5.01,0.00,29.0,25.8,00.0,38.1,30.4,23.4,0011.60,0020.73
2021-08-16 17:45:00,,0829.0,5.00,0.00,28.9,26.2,00.0,38.1,30.5,24.1,0011.58,0020.99
2021-08-16 17:46:00,,0828.6,4.99,0.00,28.9,26.6,00.0,38.1,30.6,24.1,0011.56,0020.65
2021-08-16 17:47:00,,0828.9,4.99,0.00,28.9,27.0,00.0,38.0,30.7,23.5,0011.59,0019.76
2021-08-16 17:48:00,,0828.6,5.00,0.00,29.0,27.4,00.0,38.0,30.8,23.9,0011.61,0020.43
2021-08-16 17:49:00,,0828.7,5.01,0.00,29.0,27.7,00.0,38.0,30.9,24.6,0011.65,0021.07
2021-08-16 17:50:00,,0829.1,4.99,0.00,29.1,27.9,00.0,38.1,31.0,24.1,0011.69,0021.18
2021-08-16 17:51:00,,0828.7,5.01,0.00,29.1,27.3,00.0,38.1,30.8,24.5,0011.73,0022.30
2021-08-16 17:52:00,,0828.5,4.99,0.00,29.0,25.8,00.0,38.0,30.3,24.2,0011.78,0023.47
2021-08-16 17:53:00,,0828.6,5.00,0.00,28.9,25.8,00.0,38.0,30.3,24.6,0011.73,0022.99
2021-08-16 17:54:00,,0828.6,5.00,0.00,28.9,26.2,00.0,38.0,30.4,24.3,0011.75,0023.63
2021-08-16 17:55:00,,0828.6,5.00,0.00,28.8,26.6,00.0,38.0,30.5,24.5,0011.83,0023.28
2021-08-16 17:56:00,,0828.5,5.01,0.00,28.9,27.1,00.0,38.0,30.7,24.6,0011.96,0023.79
2021-08-16 17:57:00,,0828.5,4.99,0.00,28.9,27.4,00.0,38.0,30.8,24.5,0011.98,0024.58
2021-08-16 17:58:00,,0828.5,5.01,0.00,29.0,27.7,00.0,38.0,30.9,24.4,0011.99,0024.80
2021-08-16 17:59:00,,0828.5,5.00,0.00,29.1,28.0,00.0,38.0,31.0,24.8,0012.00,0023.91
